Zurück zum Katalog

STARLINK-3179

AktivKommunikationVLEO
NORAD 51141·PAYLOAD·🇺🇸 United States

Gestartet Jan 19, 2022 von Cape Canaveral Space Force Station

Loading…

Nächste Überflüge (nächste 24 Stunden)

TLE

AktuellSource: CelesTrak SupGP

Epoche: Sep 15, 2026, 02:16 UTC

1 51141C 22005AP  26258.09493056  .00024852  00000+0  73425-3 0  2582
2 51141  53.1571 154.7265 0001340  85.5062  68.1975 15.34378353    19

Verfolge STARLINK-3179 in Echtzeit mit AllMySat

Download on the App Store